{"data":{"norad_id":64036,"epoch":"2026-05-24T19:44:31.086528Z","epoch_age_seconds":84142,"freshness":"FRESH","line1":"1 64036U 25102Q   26144.82258202  .00005105  00000+0  43520-3 0  9992","line2":"2 64036  70.0006 282.5892 0003134 269.9893  90.0907 14.98344121 57359","mean_motion":14.98344121,"eccentricity":0.0003134,"inclination_deg":70.0006,"raan_deg":282.5892,"arg_perigee_deg":269.9893,"mean_anomaly_deg":90.0907,"bstar":0.0004352,"rev_number":5735,"period_min":96.106093374527,"perigee_km":569.83404649315,"apogee_km":574.19040002629,"semimajor_km":6950.1492232597,"source":"CELESTRAK","updated_at":"2026-05-25T13:38:20.227303Z"}}